When you browse on this site, cookies collect data to enhance your experience and personalize the content and advertising you see.
Visit our Privacy Policy to learn more. By continuing to use the site, you agree to this use of cookies and data.
  • In United Kingdom
  • List of Countries
  • For 7 days
  • Water Temperature
  • Weather Map
  • Weather Widgets
  • user-avatar
    Login

    Hourly Weather Wlora

    Today, 15 September, Sunday

    Time Temperature Precipitation Wind Pressure Humidity
    00:00 +23°C° 0 mm 5 mps 766 mmHg 53%
    01:00 +23°C° 0 mm 4 mps 766 mmHg 48%
    02:00 +23°C° 0 mm 4 mps 766 mmHg 46%
    03:00 +24°C° 0 mm 3 mps 766 mmHg 44%
    04:00 +24°C° 0 mm 3 mps 766 mmHg 42%
    05:00 +24°C° 0 mm 3 mps 766 mmHg 42%
    06:00 +25°C° 0 mm 3 mps 766 mmHg 42%
    07:00 +26°C° 0 mm 3 mps 766 mmHg 40%
    08:00 +28°C° 0 mm 3 mps 766 mmHg 37%
    09:00 +30°C° 0 mm 2 mps 766 mmHg 34%
    10:00 +32°C° 0 mm 2 mps 766 mmHg 30%
    11:00 +32°C° 0 mm 2 mps 766 mmHg 31%
    12:00 +32°C° 0 mm 2 mps 766 mmHg 32%
    13:00 +33°C° 0 mm 3 mps 766 mmHg 33%
    14:00 +31°C° 0 mm 3 mps 765 mmHg 35%
    15:00 +30°C° 0 mm 4 mps 765 mmHg 38%
    16:00 +30°C° 0 mm 4 mps 764 mmHg 40%
    17:00 +28°C° 0 mm 4 mps 765 mmHg 46%
    18:00 +27°C° 0 mm 5 mps 765 mmHg 52%
    19:00 +25°C° 0 mm 5 mps 765 mmHg 58%
    20:00 +25°C° 0 mm 5 mps 765 mmHg 59%
    21:00 +25°C° 0 mm 5 mps 765 mmHg 60%
    22:00 +25°C° 0 mm 5 mps 765 mmHg 61%
    23:00 +23°C° 0 mm 5 mps 765 mmHg 62%

    Tomorrow, 16 September, Monday

    Time Temperature Precipitation Wind Pressure Humidity
    00:00 +23°C° 0 mm 4 mps 765 mmHg 62%
    01:00 +23°C° 0 mm 4 mps 765 mmHg 63%
    02:00 +22°C° 0 mm 4 mps 764 mmHg 62%
    03:00 +22°C° 0 mm 4 mps 764 mmHg 61%
    04:00 +22°C° 0 mm 4 mps 764 mmHg 60%
    05:00 +23°C° 0 mm 4 mps 764 mmHg 57%
    06:00 +25°C° 0 mm 4 mps 763 mmHg 53%
    07:00 +26°C° 0 mm 4 mps 763 mmHg 50%
    08:00 +27°C° 0 mm 4 mps 763 mmHg 48%
    09:00 +28°C° 0 mm 4 mps 763 mmHg 46%
    10:00 +30°C° 0 mm 5 mps 763 mmHg 44%
    11:00 +30°C° 0 mm 5 mps 763 mmHg 45%
    12:00 +30°C° 0 mm 5 mps 763 mmHg 46%
    13:00 +32°C° 0 mm 5 mps 762 mmHg 47%
    14:00 +30°C° 0 mm 5 mps 762 mmHg 50%
    15:00 +29°C° 0 mm 5 mps 762 mmHg 52%
    16:00 +29°C° 0 mm 6 mps 761 mmHg 54%
    17:00 +27°C° 0 mm 5 mps 762 mmHg 62%
    18:00 +26°C° 0 mm 5 mps 762 mmHg 69%
    19:00 +23°C° 0 mm 5 mps 762 mmHg 76%
    20:00 +23°C° 0 mm 4 mps 762 mmHg 75%
    21:00 +23°C° 0 mm 4 mps 762 mmHg 74%
    22:00 +22°C° 0 mm 3 mps 762 mmHg 73%
    23:00 +22°C° 0 mm 3 mps 762 mmHg 71%

    Day after tomorrow, 17 September, Tuesday

    Time Temperature Precipitation Wind Pressure Humidity
    00:00 +22°C° 0 mm 3 mps 762 mmHg 70%
    01:00 +22°C° 0 mm 3 mps 762 mmHg 68%
    02:00 +21°C° 0 mm 3 mps 761 mmHg 68%
    03:00 +21°C° 0 mm 3 mps 761 mmHg 68%
    04:00 +21°C° 0 mm 3 mps 761 mmHg 68%
    05:00 +22°C° 0 mm 3 mps 761 mmHg 65%
    06:00 +24°C° 0 mm 3 mps 761 mmHg 61%
    07:00 +25°C° 0 mm 3 mps 761 mmHg 58%
    08:00 +26°C° 0 mm 3 mps 761 mmHg 52%
    09:00 +28°C° 0 mm 2 mps 762 mmHg 45%
    10:00 +30°C° 0 mm 2 mps 762 mmHg 39%
    11:00 +30°C° 0 mm 2 mps 761 mmHg 41%
    12:00 +30°C° 0 mm 2 mps 761 mmHg 42%
    13:00 +30°C° 0 mm 3 mps 761 mmHg 44%
    14:00 +30°C° 0 mm 2 mps 761 mmHg 45%
    15:00 +30°C° 0 mm 2 mps 760 mmHg 47%
    16:00 +29°C° 0 mm 2 mps 760 mmHg 48%
    17:00 +28°C° 0 mm 1 mps 760 mmHg 54%
    18:00 +26°C° 0 mm 1 mps 760 mmHg 59%
    19:00 +25°C° 0 mm 1 mps 760 mmHg 65%
    20:00 +24°C° 0 mm 1 mps 760 mmHg 65%
    21:00 +24°C° 0 mm 1 mps 760 mmHg 65%
    22:00 +24°C° 0 mm 1 mps 760 mmHg 65%
    23:00 +23°C° 0 mm 1 mps 760 mmHg 65%

    18 September, Wednesday

    Time Temperature Precipitation Wind Pressure Humidity
    00:00 +23°C° 0 mm 1 mps 760 mmHg 65%
    01:00 +21°C° 0 mm 0 mps 760 mmHg 65%
    02:00 +23°C° 0 mm 1 mps 760 mmHg 63%
    03:00 +22°C° 0 mm 1 mps 760 mmHg 60%
    04:00 +22°C° 0 mm 1 mps 760 mmHg 58%
    05:00 +23°C° 0 mm 1 mps 760 mmHg 55%
    06:00 +24°C° 0 mm 1 mps 760 mmHg 51%
    07:00 +26°C° 0 mm 2 mps 761 mmHg 48%
    08:00 +27°C° 0 mm 2 mps 761 mmHg 48%
    09:00 +28°C° 0 mm 2 mps 761 mmHg 48%
    10:00 +29°C° 0 mm 2 mps 761 mmHg 48%
    11:00 +29°C° 0 mm 3 mps 761 mmHg 48%
    12:00 +30°C° 0 mm 3 mps 760 mmHg 48%
    13:00 +30°C° 0 mm 3 mps 760 mmHg 49%
    14:00 +30°C° 0 mm 3 mps 760 mmHg 51%
    15:00 +29°C° 0 mm 3 mps 759 mmHg 52%
    16:00 +29°C° 0 mm 3 mps 759 mmHg 54%
    17:00 +28°C° 0 mm 3 mps 759 mmHg 62%
    18:00 +26°C° 0 mm 2 mps 759 mmHg 69%
    19:00 +25°C° 0 mm 2 mps 760 mmHg 76%
    20:00 +25°C° 0 mm 2 mps 760 mmHg 75%
    21:00 +24°C° 0 mm 2 mps 760 mmHg 75%
    22:00 +24°C° 0 mm 1 mps 760 mmHg 74%
    23:00 +24°C° 0 mm 1 mps 760 mmHg 73%

    19 September, Thursday

    Time Temperature Precipitation Wind Pressure Humidity
    00:00 +24°C° 0 mm 2 mps 760 mmHg 71%
    01:00 +24°C° 0 mm 2 mps 760 mmHg 70%
    02:00 +24°C° 0 mm 2 mps 760 mmHg 71%
    03:00 +23°C° 0 mm 2 mps 760 mmHg 71%
    04:00 +23°C° 0 mm 2 mps 760 mmHg 72%
    05:00 +24°C° 0 mm 2 mps 759 mmHg 67%
    06:00 +25°C° 0 mm 3 mps 759 mmHg 63%
    07:00 +26°C° 0 mm 3 mps 759 mmHg 59%
    08:00 +27°C° 0 mm 4 mps 759 mmHg 56%
    09:00 +28°C° 0 mm 4 mps 760 mmHg 54%
    10:00 +29°C° 0 mm 4 mps 760 mmHg 51%
    11:00 +30°C° 0 mm 4 mps 759 mmHg 52%
    12:00 +30°C° 0 mm 4 mps 759 mmHg 52%
    13:00 +30°C° 0 mm 5 mps 759 mmHg 52%
    14:00 +30°C° 0.2 mm 4 mps 758 mmHg 54%
    15:00 +29°C° 0.2 mm 4 mps 758 mmHg 56%
    16:00 +29°C° 0.2 mm 4 mps 758 mmHg 58%
    17:00 +28°C° 0.6 mm 4 mps 758 mmHg 63%
    18:00 +27°C° 0.6 mm 4 mps 758 mmHg 68%
    19:00 +26°C° 0.6 mm 4 mps 758 mmHg 72%
    20:00 +25°C° 0.8 mm 3 mps 759 mmHg 73%
    21:00 +25°C° 0.8 mm 2 mps 759 mmHg 74%
    22:00 +25°C° 0.8 mm 1 mps 759 mmHg 75%
    23:00 +24°C° 0.4 mm 2 mps 759 mmHg 76%

    20 September, Friday

    Time Temperature Precipitation Wind Pressure Humidity
    00:00 +24°C° 0.4 mm 3 mps 759 mmHg 77%
    01:00 +22°C° 0.4 mm 3 mps 759 mmHg 78%
    02:00 +22°C° 0.6 mm 4 mps 759 mmHg 79%
    03:00 +22°C° 0.6 mm 4 mps 759 mmHg 79%
    04:00 +22°C° 0.6 mm 4 mps 759 mmHg 80%
    05:00 +22°C° 0.1 mm 5 mps 759 mmHg 77%
    06:00 +22°C° 0.1 mm 6 mps 759 mmHg 75%
    07:00 +23°C° 0.1 mm 7 mps 759 mmHg 72%
    08:00 +23°C° 0 mm 7 mps 760 mmHg 68%
    09:00 +24°C° 0 mm 7 mps 760 mmHg 64%
    10:00 +26°C° 0 mm 8 mps 761 mmHg 59%
    11:00 +26°C° 0 mm 9 mps 761 mmHg 59%
    12:00 +26°C° 0 mm 10 mps 761 mmHg 58%
    13:00 +26°C° 0 mm 10 mps 761 mmHg 58%
    14:00 +24°C° 0 mm 11 mps 761 mmHg 56%
    15:00 +24°C° 0 mm 11 mps 761 mmHg 53%
    16:00 +24°C° 0 mm 11 mps 761 mmHg 51%
    17:00 +23°C° 0 mm 11 mps 761 mmHg 51%
    18:00 +22°C° 0 mm 10 mps 761 mmHg 52%
    19:00 +21°C° 0 mm 9 mps 762 mmHg 52%
    20:00 +19°C° 0 mm 9 mps 762 mmHg 51%
    21:00 +20°C° 0 mm 8 mps 762 mmHg 51%
    22:00 +18°C° 0 mm 8 mps 763 mmHg 51%
    23:00 +18°C° 0 mm 8 mps 763 mmHg 52%
    Show more